Hulett, WY

6:44 PM MDT on May 26, 2017 (GMT -0600)
Hulett

Weather History for KW43 - May, 2014

Change the Weather History Date:

Friday, May 23, 2014

  Actual Average (KEFC) Record (KEFC)
Temperature  
Mean Temperature 66 °F -  
Max Temperature 77 °F 72 °F 94 °F (1980)
Min Temperature 55 °F 44 °F 32 °F (1959)
Cooling Degree Days 1    
Growing Degree Days 16 (Base 50)    
Moisture  
Dew Point 52 °F    
Average Humidity 65    
Maximum Humidity 88    
Minimum Humidity 36    
Precipitation  
Precipitation 0.00 in - - ()
Sea Level Pressure  
Sea Level Pressure 30.08 in    
Wind  
Wind Speed 8 mph (SSE)    
Max Wind Speed 22 mph    
Max Gust Speed 29 mph    
Visibility 10 miles    
Events Rain , Thunderstorm    
Averages and records for this station are not official NWS values.
T = Trace of Precipitation, MM = Missing Value Source: NWS Daily Summary

Daily Weather History Graph

Daily Weather History Graph

Search for Another Location

Airport or City:

Trip Planner

Search our weather history database for the weather conditions in past years. The results will help you decide how hot, cold, wet, or windy it might be!

Date:

Astronomy

May. 23, 2014 Rise Set
Actual Time 5:22 AM MDT 8:28 PM MDT
Civil Twilight 4:47 AM MDT 9:03 PM MDT
Nautical Twilight 4:02 AM MDT 9:48 PM MDT
Astronomical Twilight 3:08 AM MDT 10:43 PM MDT
Moon 2:31 AM MDT (5/23) 3:11 PM MDT (5/23)
Length of Visible Light 16h 16m
Length of Day
15h 06m
Waning Crescent, 26% of the Moon is Illuminated
May 23
Waning Crescent
May 28
New
Jun 5
First Quarter
Jun 12
Full
Jun 19
Last Quarter

Hourly Weather History & Observations

Time (MDT) Temp. Dew Point Humidity Pressure Visibility Wind Dir Wind Speed Gust Speed Precip Events Conditions
12:15 AM 64.4 °F 53.6 °F 68% 30.11 in 10.0 mi SSE 10.4 mph - N/A   Clear
12:35 AM 64.4 °F 53.6 °F 68% 30.12 in 10.0 mi SSW 5.8 mph - N/A   Clear
12:55 AM 64.4 °F 53.6 °F 68% 30.12 in 10.0 mi SSW 9.2 mph - N/A   Clear
1:15 AM 64.4 °F 53.6 °F 68% 30.12 in 10.0 mi SSW 9.2 mph - N/A   Clear
1:35 AM 64.4 °F 53.6 °F 68% 30.12 in 10.0 mi SSW 9.2 mph - N/A   Clear
1:55 AM 64.4 °F 53.6 °F 68% 30.12 in 10.0 mi SSW 9.2 mph - N/A   Clear
2:15 AM 64.4 °F 53.6 °F 68% 30.12 in 10.0 mi South 8.1 mph - N/A   Clear
2:35 AM 64.4 °F 53.6 °F 68% 30.12 in 10.0 mi SW 6.9 mph - N/A   Clear
2:55 AM 62.6 °F 53.6 °F 72% 30.12 in 10.0 mi SSW 5.8 mph - N/A   Clear
3:15 AM 62.6 °F 53.6 °F 72% 30.12 in 10.0 mi SSW 8.1 mph - N/A   Scattered Clouds
3:35 AM 60.8 °F 51.8 °F 72% 30.12 in 10.0 mi SSW 6.9 mph - N/A   Clear
3:55 AM 59.0 °F 51.8 °F 77% 30.12 in 10.0 mi SW 5.8 mph - N/A   Clear
4:15 AM 59.0 °F 53.6 °F 82% 30.13 in 10.0 mi Calm Calm - N/A   Clear
4:35 AM 60.8 °F 53.6 °F 77% 30.13 in 10.0 mi Calm Calm - N/A   Scattered Clouds
4:55 AM 57.2 °F 51.8 °F 82% 30.13 in 10.0 mi NNE 3.5 mph - N/A   Scattered Clouds
5:15 AM 59.0 °F 51.8 °F 77% 30.12 in 10.0 mi Calm Calm - N/A   Scattered Clouds
5:35 AM 55.4 °F 51.8 °F 88% 30.13 in 10.0 mi ESE 3.5 mph - N/A   Clear
5:55 AM 55.4 °F 51.8 °F 88% 30.13 in 10.0 mi North - - N/A   Scattered Clouds
6:15 AM 59.0 °F 53.6 °F 82% 30.13 in 10.0 mi SE 3.5 mph - N/A   Clear
6:35 AM 59.0 °F 53.6 °F 82% 30.13 in 10.0 mi Calm Calm - N/A   Clear
6:55 AM 60.8 °F 55.4 °F 82% 30.13 in 10.0 mi Calm Calm - N/A   Clear
7:15 AM 64.4 °F 55.4 °F 73% 30.13 in 10.0 mi Calm Calm - N/A   Clear
7:35 AM 66.2 °F 57.2 °F 73% 30.13 in 10.0 mi SE 4.6 mph - N/A   Clear
7:55 AM 68.0 °F 55.4 °F 64% 30.13 in 10.0 mi SE 3.5 mph - N/A   Clear
8:15 AM 68.0 °F 55.4 °F 64% 30.12 in 10.0 mi ESE 3.5 mph - N/A   Clear
8:35 AM 69.8 °F 55.4 °F 60% 30.12 in 10.0 mi Calm Calm - N/A   Clear
8:55 AM 69.8 °F 55.4 °F 60% 30.12 in 10.0 mi ESE 6.9 mph - N/A   Clear
9:15 AM 71.6 °F 55.4 °F 57% 30.12 in 10.0 mi East 6.9 mph - N/A   Clear
9:35 AM 71.6 °F 53.6 °F 53% 30.12 in 10.0 mi SE 9.2 mph - N/A   Clear
9:55 AM 73.4 °F 51.8 °F 47% 30.11 in 10.0 mi East 10.4 mph - N/A   Clear
10:35 AM 75.2 °F 50.0 °F 41% 30.10 in 10.0 mi East 11.5 mph - N/A   Clear
10:55 AM 75.2 °F 50.0 °F 41% 30.10 in 10.0 mi East 9.2 mph - N/A   Clear
11:15 AM 77.0 °F 48.2 °F 36% 30.09 in 10.0 mi East 9.2 mph - N/A   Clear
11:35 AM 77.0 °F 48.2 °F 36% 30.09 in 10.0 mi East 5.8 mph - N/A   Scattered Clouds
11:55 AM 77.0 °F 50.0 °F 39% 30.08 in 10.0 mi ESE 10.4 mph - N/A   Scattered Clouds
12:15 PM 73.4 °F 50.0 °F 44% 30.08 in 10.0 mi NE 5.8 mph - N/A   Mostly Cloudy
12:55 PM 73.4 °F 51.8 °F 47% 30.07 in 10.0 mi ENE 9.2 mph - N/A   Mostly Cloudy
1:15 PM 73.4 °F 53.6 °F 50% 30.06 in 10.0 mi East 10.4 mph - N/A   Overcast
1:35 PM 71.6 °F 53.6 °F 53% 30.06 in 10.0 mi Calm Calm - N/A Thunderstorm Thunderstorm
1:55 PM 69.8 °F 53.6 °F 56% 30.05 in 10.0 mi East 11.5 mph - N/A Thunderstorm Thunderstorm
2:15 PM 68.0 °F 55.4 °F 64% 30.07 in 10.0 mi East 10.4 mph - N/A Thunderstorm Thunderstorm
2:35 PM 64.4 °F 53.6 °F 68% 30.07 in 10.0 mi East 16.1 mph - N/A Rain , Thunderstorm Light Thunderstorms and Rain
2:55 PM 59.0 °F 51.8 °F 77% 30.08 in 4.0 mi East 12.7 mph 20.7 mph N/A Rain , Thunderstorm Thunderstorms and Rain
3:15 PM 59.0 °F 50.0 °F 72% 30.07 in 7.0 mi ESE 15.0 mph 26.5 mph N/A Rain , Thunderstorm Light Thunderstorms and Rain
3:35 PM 57.2 °F 50.0 °F 77% 30.08 in 5.0 mi SSE 21.9 mph 28.8 mph N/A Rain , Thunderstorm Heavy Thunderstorms and Rain
3:55 PM 59.0 °F 50.0 °F 72% 30.08 in 5.0 mi SE 18.4 mph 26.5 mph N/A Rain , Thunderstorm Rain
4:15 PM 60.8 °F 48.2 °F 63% 30.07 in 10.0 mi SSE 13.8 mph 24.2 mph N/A Rain Light Rain
4:35 PM 60.8 °F 51.8 °F 72% 30.07 in 10.0 mi SE 8.1 mph - N/A Rain , Thunderstorm Light Thunderstorms and Rain
4:55 PM 60.8 °F 51.8 °F 72% 30.06 in 10.0 mi East 9.2 mph - N/A Rain Light Rain
5:15 PM 60.8 °F 51.8 °F 72% 30.05 in 10.0 mi ESE 16.1 mph - N/A   Mostly Cloudy
5:35 PM 62.6 °F 48.2 °F 59% 30.04 in 10.0 mi East 13.8 mph 23.0 mph N/A   Mostly Cloudy
5:55 PM 62.6 °F 48.2 °F 59% 30.03 in 10.0 mi East 4.6 mph 10.4 mph N/A   Overcast
6:15 PM 62.6 °F 50.0 °F 63% 30.03 in 10.0 mi SSE 5.8 mph - N/A   Overcast
6:35 PM 62.6 °F 50.0 °F 63% 30.03 in 10.0 mi South 9.2 mph - N/A Thunderstorm Scattered Clouds
6:55 PM 62.6 °F 48.2 °F 59% 30.02 in 10.0 mi SSE 11.5 mph - N/A   Clear
7:15 PM 62.6 °F 50.0 °F 63% 30.03 in 10.0 mi South 11.5 mph - N/A   Clear
7:35 PM 62.6 °F 51.8 °F 68% 30.03 in 10.0 mi SSW 5.8 mph - N/A   Clear
7:55 PM 62.6 °F 50.0 °F 63% 30.03 in 10.0 mi South 10.4 mph - N/A   Clear
8:15 PM 64.4 °F 50.0 °F 59% 30.04 in 10.0 mi South 6.9 mph - N/A   Clear
8:35 PM 62.6 °F 50.0 °F 63% 30.04 in 10.0 mi South 8.1 mph - N/A   Clear
8:55 PM 62.6 °F 48.2 °F 59% 30.04 in 10.0 mi South 6.9 mph - N/A   Clear
9:15 PM 62.6 °F 48.2 °F 59% 30.06 in 10.0 mi South 8.1 mph - N/A   Clear
9:35 PM 62.6 °F 48.2 °F 59% 30.06 in 10.0 mi South 5.8 mph - N/A   Clear
9:55 PM 62.6 °F 50.0 °F 63% 30.06 in 10.0 mi South 8.1 mph - N/A   Clear
10:15 PM 60.8 °F 50.0 °F 68% 30.06 in 10.0 mi SSW 8.1 mph - N/A   Clear
10:35 PM 60.8 °F 50.0 °F 68% 30.05 in 10.0 mi South 5.8 mph - N/A   Clear
10:55 PM 60.8 °F 50.0 °F 68% 30.03 in 10.0 mi South 9.2 mph - N/A   Clear
11:15 PM 60.8 °F 48.2 °F 63% 30.03 in 10.0 mi SW 4.6 mph - N/A   Clear
11:35 PM 60.8 °F 48.2 °F 63% 30.03 in 10.0 mi SSW 9.2 mph - N/A   Clear
11:55 PM 60.8 °F 48.2 °F 63% 30.02 in 10.0 mi SW 11.5 mph - N/A   Clear